Regional Weather Roundup
Issued by NWS Charleston, SC

Current Version | Previous Version | Graphics & Text | Print | Product List | Glossary On
Versions: 1 2 3 4 5 6 7 8 9 10 11 12 13 14 15 16 17 18 19 20 21 22 23 24 25 26 27 28 29 30 31 32 33 34 35 36 37 38 39 40 41 42 43 44 45 46 47 48 49 50
000 ASUS42 KCHS 292112 RWRCHS REGIONAL WEATHER ROUNDUP NATIONAL WEATHER SERVICE CHARLESTON SC 500 PM EDT WED MAR 29 2017 NOTE: "FAIR" INDICATES FEW OR NO CLOUDS BELOW 12,000 FEET WITH NO SIGNIFICANT WEATHER AND/OR OBSTRUCTIONS TO VISIBILITY. NOT ALL STATIONS ARE QUALITY CONTROLLED. USE DATA WITH CAUTION... ESPECIALLY DEWPOINT OBSERVATIONS. SCZ027-030-031-034>040-042>050-292200- ...SOUTHEAST SOUTH CAROLINA... CITY SKY/WX TMP DP RH WIND PRES REMARKS N CHARLESTON MOSUNNY 79 55 43 SE13 29.99R WATERFRONT PRK N/A 68 62 81 SE7 29.98S JOHNS ISLAND FAIR 75 63 64 SE8 30.00S PINOPOLIS N/A 79 57 47 NW5 29.91F MONCKS CORNER FAIR 82 45 26 NW3 29.98S SUMMERVILLE FAIR 82 46 28 CALM 29.98S BEAUFORT MCAS MOSUNNY 80 64 58 SE7 29.98F BEAUFORT ARPT FAIR 77 59 53 SE5 29.98S HILTON HEAD IS SUNNY 72 59 64 SE3 30.01S WALTERBORO CLEAR 84 48 28 W7 29.98S ALLENDALE FAIR 84 50 30 CALM 29.97S ...SOUTHERN MIDLANDS AND PEE DEE... CITY SKY/WX TMP DP RH WIND PRES REMARKS GEORGETOWN FAIR 70 61 73 E10 30.02R KINGSTREE FAIR 82 45 26 N3 29.98S ORANGEBURG SUNNY 85 48 27 VRB6 29.98S BARNWELL FAIR 86 52 30 W7 29.98R AIKEN FAIR 81 50 34 W7 30.03S MANNING FAIR 81 50 34 SW8 29.98S COLUMBIA MOSUNNY 84 48 28 NW10 29.98S SUMTER SUNNY 83 49 30 N3 29.97S FLORENCE SUNNY 81 53 37 N8 29.99F MYRTLE BEACH SUNNY 66 57 72 E18 30.03S N MYRTLE BEACH SUNNY 66 59 78 E15G21 30.02S $$ GAZ063-065-086>088-099>101-113>116-118-119-134>141-150-292200- ...SOUTHEAST GEORGIA... CITY SKY/WX TMP DP RH WIND PRES REMARKS SAVANNAH ARPT CLOUDY 83 56 39 E10 29.98S HUNTER AAF PTSUNNY 81 62 53 E8 29.96F FORT STEWART PTSUNNY 85 59 41 E5 29.95F STATESBORO MOSUNNY 86 58 38 NW7 29.98S SYLVANIA MOCLDY N/A N/A N/A W5G24 29.99S CLAXTON FAIR 85 58 40 S5 29.98S ...CSRA...CENTRAL AND FAR SOUTHEAST GEORGIA... CITY SKY/WX TMP DP RH WIND PRES REMARKS THOMSON MOSUNNY 83 51 33 NW5 30.04S AUGUSTA-BUSH MOSUNNY 84 53 34 NE7 29.97F AUGUSTA-DANIEL MOSUNNY 86 50 28 N10 29.99F SWAINSBORO MOCLDY 86 52 30 W3 29.99F VIDALIA PTSUNNY 86 55 35 CALM 29.98F EASTMAN FAIR 87 35 15 W3 30.01S HAZLEHURST FAIR 87 59 39 CALM 29.97S ALMA CLOUDY 86 61 42 S5 29.97F WAYCROSS PTSUNNY 87 65 48 SW5 29.97S JESUP MOCLDY 88 54 31 NW6 29.97S BAXLEY FAIR 86 63 45 CALM 29.97S BRUNSWICK PTSUNNY 81 66 61 E7 30.00S SAINT SIMONS PTSUNNY 75 62 64 E8 29.99F $$ SCZ027-028-034-036>038-045-046-048>050-GAZ119-141-292200- ...LAKE AND SUPPLEMENTAL COASTAL OBSERVATIONS... STATION/POSITION TIME TEMP WIND PRES WAVE SWELL AIR SEA DIR/SP/G HT/PER HT/PER/DIR (UTC) (F) (DEG/KT/KT) (MB) (FT/S) (FT/S/D) WINYAH BAY NOT AVBL LAKE MURRAY 2020 74 210/ 7/ 8 1014.9 ACE BASIN NERRS NOT AVBL FORT PULASKI 2048 67 67 90/ 10/ 11 1015.9F SAPELO ISLAND 2000 77 100/ 9 1016.0 $$ ANZ835-935-AMZ111-154-330-350-352-354-370-450-454-472-292200- ...C-MAN AND BUOY OBSERVATIONS... STATION/POSITION TIME TEMP WIND PRES WAVE SWELL AIR SEA DIR/SP/G HT/PER HT/PER/DIR (UTC) (F) (DEG/KT/KT) (MB) (FT/S) (FT/S/D) BUOY 41004 1950 70 71 30/ 10/ 12 1015.6 4/10 3/120/10 BUOY 41008 1950 66 67 40/ 8/ 10 1015.9 3/10 3/ 90/10 FOLLY BEACH CMAN 2000 67 90/ 9/ 11 1016.6F CAPERS NEARSHORE NOT AVBL FRIPP NEARSHORE 2008 66 64 110/ 6/ 8 1015.9F STATION/POSITION TIME TEMP WIND PRES WAVE SWELL AIR SEA DIR/SP/G HT/PER HT/PER/DIR (UTC) (F) (DEG/KT/KT) (MB) (FT/S) (FT/S/D) 5E ST. MARYS GA 2030 70 N/A 3/11 2/120/11 FRYING PAN BUOY 2050 66 73 40/ 17/ 21 1016.8R 6/ 5 3/150/10 BUOY 41025 1950 57 73 30/ 21/ 25 1017.7 6/ 9 3/130/ 9 CAPE LOOKOUT NC 2000 59 40/ 20/ 22 1017.6R BUOY 41002 2050 73 73 10/ 12/ 16 1014.8R 6/10 5/100/10 BUOY 41010 NOT AVBL ST AUGUSTINE FL 2100 72 70 90/ 5/ 6 1016.3F $$

USA.gov is the U.S. government's official web portal to all federal, state and local government web resources and services.